Home > Products > Valid Products > RWR

000
ASUS42 KCAE 291710
RWRCAE
REGIONAL WEATHER ROUNDUP
NATIONAL WEATHER SERVICE COLUMBIA SC
100 PM EDT SUN MAY 29 2016

NOTE: "FAIR" INDICATES FEW OR NO CLOUDS BELOW 12,000 FEET WITH NO
SIGNIFICANT WEATHER AND/OR OBSTRUCTIONS TO VISIBILITY.

NOT ALL STATIONS ARE QUALITY CONTROLLED BY THE NATIONAL
WEATHER SERVICE. USE DATA WITH CAUTION...ESPECIALLY
DEWPOINT OBSERVATIONS.

SCZ001>056-GAZ040-063>065-077-291800-
...UPSTATE SOUTH CAROLINA...

CITY           SKY/WX    TMP DP  RH WIND       PRES   REMARKS
ANDERSON       PTSUNNY   73  63  70 NE7       30.15S
LIBERTY        LGT RAIN  70  67  89 CALM      30.14F
SPARTANBURG    LGT RAIN  68  61  77 N6        30.14R
CLEMSON        CLOUDY    71  65  81 SE5       30.15F
GREENVILLE     CLOUDY    70  60  70 NE7       30.15F
GREENWOOD      LGT RAIN  69  64  84 NW7       30.13F
GREER          LGT RAIN  71  61  70 N7        30.14S
ROCK HILL      CLOUDY    72  67  84 N12       30.10F
CHESTER        CLOUDY    70  68  94 N12       30.10F
LAURENS        CLOUDY    68  63  83 N6        30.12S


...CENTRAL SOUTH CAROLINA...

CITY           SKY/WX    TMP DP  RH WIND       PRES   REMARKS
COLUMBIA APT   LGT RAIN  68  64  87 N12G23    30.00F
COLUMBIA OWENS LGT RAIN  68  65  90 VRB7G23   30.01F FOG
MCENTIRE ANGB  LGT RAIN  70  68  94 N21G28    29.97F
ORANGEBURG     LGT RAIN  70  68  93 N13G26    29.93F
SUMTER SHAW    CLOUDY    74  70  87 N17G23    29.92F
NEWBERRY       DRIZZLE   68  64  88 N7        30.12F
AIKEN          LGT RAIN  68  63  83 N16G23    30.08F
BARNWELL       DRIZZLE   70  70 100 NW20G26   29.99F
MANNING        LGT RAIN  77  73  88 E9        29.91F
LANCASTER      CLOUDY    68  68 100 N7        30.07F
WINNSBORO      CLOUDY    66  64  94 N14G20    30.05F FOG


...EASTERN AND COASTAL SOUTH CAROLINA...

CITY           SKY/WX    TMP DP  RH WIND       PRES   REMARKS
MYRTLE BEACH   LGT RAIN  79  68  69 SE12      30.00S FOG
N MYRTLE BCH   MOSUNNY   80  73  79 SE9       29.99F
CONWAY         DRIZZLE   81  72  74 SE12      29.97F
MARION         CLOUDY    79  72  78 E7        29.98F
HARTSVILLE     CLOUDY    73  70  88 NE13G21   30.00F
FLORENCE       PTSUNNY   84  73  69 NE13      29.97F
DARLINGTON     CLOUDY    78  72  81 N15G21    30.00F
CHARLESTON APT LGT RAIN  75  70  84 S13       29.89S
MOUNT PLEASANT FAIR      77  73  88 SE10G17   29.91S
WALTERBORO     TSTM      72  72 100 W16G24    29.85F
BEAUFORT       CLOUDY    71  67  87 W16G26    29.94F


...EASTERN GEORGIA...

CITY           SKY/WX    TMP DP  RH WIND       PRES   REMARKS
AUGUSTA BUSH F CLOUDY    68  63  84 NW15      30.06F
AUGUSTA DANIEL CLOUDY    68  62  81 NW14G28   30.08F
THOMSON        CLOUDY    69  68  96 N10G16    30.16F
WASHINGTON     LGT RAIN  70  68  94 CALM      30.14S
CLAXTON        RAIN      67  65  94 W12G22    30.08S
SYLVANIA       CLOUDY    67  65  91 N14G22    30.05S
STATESBORO     RAIN      65  64  98 NW16G22   30.05F
SAVANNAH       LGT RAIN  70  66  87 NW20G33   29.99F


...SOUTHERN NORTH CAROLINA...

CITY           SKY/WX    TMP DP  RH WIND       PRES   REMARKS
CHARLOTTE      CLOUDY    72  63  73 N13       30.11F
MONROE         CLOUDY    70  65  84 N10       30.08F
WADESBORO      CLOUDY    73  68  83 N14       30.06F HAZE
ROCKINGHAM     CLOUDY    74  71  91 N12       30.05F
RUTHERFORDTON  LGT RAIN  70  65  83 N3        30.17R
ASHEVILLE      CLOUDY    71  59  65 NW8       30.19F

$$






000
ASUS42 KCAE 290510
RWRCAE
REGIONAL WEATHER ROUNDUP
NATIONAL WEATHER SERVICE COLUMBIA SC
100 AM EDT SUN MAY 29 2016

NOTE: "FAIR" INDICATES FEW OR NO CLOUDS BELOW 12,000 FEET WITH NO
SIGNIFICANT WEATHER AND/OR OBSTRUCTIONS TO VISIBILITY.

NOT ALL STATIONS ARE QUALITY CONTROLLED BY THE NATIONAL
WEATHER SERVICE. USE DATA WITH CAUTION...ESPECIALLY
DEWPOINT OBSERVATIONS.

SCZ001>056-GAZ040-063>065-077-290600-
...UPSTATE SOUTH CAROLINA...

CITY           SKY/WX    TMP DP  RH WIND       PRES   REMARKS
ANDERSON       MOCLDY    72  65  78 CALM      30.12S
LIBERTY        MOCLDY    68  65  91 CALM      30.13S
SPARTANBURG    CLOUDY    68  64  88 CALM      30.13S
CLEMSON        CLOUDY    74  65  73 N3        30.14F
GREENVILLE     CLOUDY    73  62  68 N6        30.14F
GREENWOOD      LGT RAIN  70  66  87 CALM      30.13F
GREER          CLOUDY    70  64  81 E6        30.12F
ROCK HILL      LGT RAIN  71  66  84 CALM      30.14S
CHESTER        LGT RAIN  68  68 100 CALM      30.14R
LAURENS        LGT RAIN  68  66  94 CALM      30.13S


...CENTRAL SOUTH CAROLINA...

CITY           SKY/WX    TMP DP  RH WIND       PRES   REMARKS
COLUMBIA APT   LGT RAIN  72  68  87 CALM      30.09S
COLUMBIA OWENS LGT RAIN  71  68  90 CALM      30.10F
MCENTIRE ANGB  LGT RAIN  69  68  97 NW7       30.08F
ORANGEBURG     RAIN      69  67  93 N6        30.08F FOG
SUMTER SHAW    CLOUDY    70  68  94 NW10      30.05F
NEWBERRY       LGT RAIN  68  68 100 CALM      30.15R
AIKEN          CLOUDY    66  64  94 N3        30.14R
BARNWELL       LGT RAIN  70  70 100 N3        30.11R
MANNING        CLOUDY    68  68 100 N7        30.05F
LANCASTER      CLOUDY    68  68 100 MISG      30.12F
WINNSBORO      LGT RAIN  68  68 100 N3        30.11S


...EASTERN AND COASTAL SOUTH CAROLINA...

CITY           SKY/WX    TMP DP  RH WIND       PRES   REMARKS
MYRTLE BEACH   CLOUDY    73  66  78 NE8       30.06S
N MYRTLE BCH   CLOUDY    73  71  93 NE8       30.04F
CONWAY         MOCLDY    70  70 100 NE6       30.05F
MARION         MOCLDY    70  68  94 N5        30.07F
HARTSVILLE     CLOUDY    70  66  88 N5        30.09F
FLORENCE       CLOUDY    72  69  90 N9        30.07F
DARLINGTON     CLOUDY    71  69  93 N8        30.09F
CHARLESTON APT CLOUDY    71  69  93 N14       30.00F
MOUNT PLEASANT CLOUDY    72  72 100 N5        29.99F FOG
WALTERBORO     RAIN      70  70 100 N8        30.03F
BEAUFORT       LGT RAIN  69  67  93 NW12      30.01F


...EASTERN GEORGIA...

CITY           SKY/WX    TMP DP  RH WIND       PRES   REMARKS
AUGUSTA BUSH F LGT RAIN  67  65  93 CALM      30.10R
AUGUSTA DANIEL LGT RAIN  68  64  87 CALM      30.11R
THOMSON        CLOUDY    73  70  91 CALM      30.16R
WASHINGTON     FAIR      73  68  83 SW3       30.11S
CLAXTON        MOCLDY    71  66  84 NW6       30.08F
SYLVANIA       HVY RAIN  69  67  93 N3        30.09S
STATESBORO     RAIN      69  68  97 N6        30.08S
SAVANNAH       HVY RAIN  69  67  93 NW8       30.04S FOG


...SOUTHERN NORTH CAROLINA...

CITY           SKY/WX    TMP DP  RH WIND       PRES   REMARKS
CHARLOTTE      LGT RAIN  72  59  63 S3        30.13S
WADESBORO      CLOUDY    73  64  74 CALM      30.11S
ROCKINGHAM     LGT RAIN  71  68  89 CALM      30.11S
RUTHERFORDTON  CLOUDY    68  59  72 N5        30.15S
ASHEVILLE      CLOUDY    66  57  72 CALM      30.21S

$$






000
ASUS42 KCAE 282110
RWRCAE
REGIONAL WEATHER ROUNDUP
NATIONAL WEATHER SERVICE COLUMBIA SC
500 PM EDT SAT MAY 28 2016

NOTE: "FAIR" INDICATES FEW OR NO CLOUDS BELOW 12,000 FEET WITH NO
SIGNIFICANT WEATHER AND/OR OBSTRUCTIONS TO VISIBILITY.

NOT ALL STATIONS ARE QUALITY CONTROLLED BY THE NATIONAL
WEATHER SERVICE. USE DATA WITH CAUTION...ESPECIALLY
DEWPOINT OBSERVATIONS.

SCZ001>056-GAZ040-063>065-077-282200-
...UPSTATE SOUTH CAROLINA...

CITY           SKY/WX    TMP DP  RH WIND       PRES   REMARKS
ANDERSON       CLOUDY    82  63  52 SE9       30.12S
LIBERTY        CLOUDY    82  61  49 SE7       30.12S
SPARTANBURG    CLOUDY    81  59  47 SE5       30.12F
CLEMSON        MOSUNNY   86  56  35 VRB3      30.13S
GREENVILLE     CLOUDY    82  57  42 SE8       30.14S
GREENWOOD      CLOUDY    80  63  55 E6        30.13F
GREER          MOSUNNY   80  64  58 SE10      30.12S
ROCK HILL      CLOUDY    83  56  39 NE3       30.13F
CHESTER        CLOUDY    81  54  39 CALM      30.13F
LAURENS        CLOUDY    79  64  61 NE3       30.13S


...CENTRAL SOUTH CAROLINA...

CITY           SKY/WX    TMP DP  RH WIND       PRES   REMARKS
COLUMBIA APT   CLOUDY    84  64  50 E8        30.09S
COLUMBIA OWENS PTSUNNY   84  65  52 E3        30.10F
MCENTIRE ANGB  CLOUDY    80  67  64 SE7       30.10S
ORANGEBURG     LGT RAIN  74  66  76 VRB7      30.11R
SUMTER SHAW    CLOUDY    75  68  78 SE9       30.09R
NEWBERRY       CLOUDY    79  63  57 NE5       30.15S
AIKEN          FAIR      79  64  61 NE8       30.13S
BARNWELL       FAIR      82  72  69 E7        30.09F
MANNING        LGT RAIN  70  68  94 CALM      30.11S
LANCASTER      CLOUDY    82  63  51 NE3       30.12F
WINNSBORO      CLOUDY    81  64  57 NE5       30.11F


...EASTERN AND COASTAL SOUTH CAROLINA...

CITY           SKY/WX    TMP DP  RH WIND       PRES   REMARKS
MYRTLE BEACH   LGT RAIN  72  61  68 E9        30.12F FOG
N MYRTLE BCH   LGT RAIN  75  70  84 NE6       30.09F
CONWAY           N/A    N/A N/A N/A NE6       30.11S
MARION         RAIN      77  70  78 E3        30.11S
HARTSVILLE     FAIR      81  63  54 E9        30.10S
FLORENCE       LGT RAIN  77  68  73 SE9       30.12R
DARLINGTON     CLOUDY    82  65  56 E7        30.11S
CHARLESTON APT HVY RAIN  70  68  93 N8        30.09F FOG
MOUNT PLEASANT LGT RAIN  70  70 100 N7        30.08F
WALTERBORO     RAIN      70  70 100 NE8       30.11S
BEAUFORT       LGT RAIN  70  67  90 NE12G18   30.09S FOG


...EASTERN GEORGIA...

CITY           SKY/WX    TMP DP  RH WIND       PRES   REMARKS
AUGUSTA BUSH F HVY RAIN  74  68  81 NE6       30.08S
AUGUSTA DANIEL CLOUDY    82  66  58 N6        30.10S
THOMSON        CLOUDY    83  69  64 NE9       30.14S
WASHINGTON     FAIR      82  66  57 E10G16    30.11R
CLAXTON        FAIR      82  69  64 NE12      30.06F
SYLVANIA       CLOUDY    82  69  65 E5        30.09S
STATESBORO     CLOUDY    81  71  71 E8        30.07F
SAVANNAH       CLOUDY    73  68  84 NE10      30.08S


...SOUTHERN NORTH CAROLINA...

CITY           SKY/WX    TMP DP  RH WIND       PRES   REMARKS
CHARLOTTE      PTSUNNY   83  54  36 E3        30.12F
MONROE         CLOUDY    82  55  39 NE5       30.12F
WADESBORO      MOCLDY    85  51  30 N3        30.10S
ROCKINGHAM     CLOUDY    85  59  41 SE8       30.10S
RUTHERFORDTON  PTSUNNY   82  54  37 E5        30.14F
ASHEVILLE      SUNNY     79  49  34 SE8       30.18F

$$






    US Dept of Commerce
    National Oceanic and Atmospheric Administration
    National Weather Service
    1325 East West Highway
    Silver Spring, MD 20910
    Page Author: NWS Internet Services Team
Disclaimer
Information Quality
Credits
Glossary
Privacy Policy
Freedom of Information Act (FOIA)
About Us
Career Opportunities